TimePST,TemperatureF,Dew PointF,Humidity,Sea Level PressureIn,VisibilityMPH,Wind Direction,Wind SpeedMPH,Gust SpeedMPH,PrecipitationIn,Events,Conditions,WindDirDegrees,DateUTC
12:53 AM,57.9,44.1,60,30.02,10.0,NW,6.9,-,N/A,,Clear,320,2013-02-04 08:53:00
3:53 AM,55.0,42.1,62,30.00,10.0,NW,5.8,-,N/A,,Clear,320,2013-02-04 11:53:00
4:53 AM,54.0,41.0,62,30.01,10.0,NNW,6.9,-,N/A,,Clear,340,2013-02-04 12:53:00
5:53 AM,54.0,41.0,62,30.01,10.0,NW,5.8,-,N/A,,Clear,310,2013-02-04 13:53:00
6:53 AM,55.0,39.9,57,30.02,10.0,NW,5.8,-,N/A,,Clear,320,2013-02-04 14:53:00
7:53 AM,59.0,39.9,49,30.03,10.0,NNW,9.2,-,N/A,,Clear,330,2013-02-04 15:53:00
8:53 AM,66.9,39.0,36,30.04,10.0,WNW,4.6,-,N/A,,Clear,300,2013-02-04 16:53:00
9:53 AM,73.0,37.0,27,30.04,10.0,Calm,Calm,-,N/A,,Clear,0,2013-02-04 17:53:00
10:53 AM,77.0,30.9,19,30.03,10.0,Calm,Calm,-,N/A,,Clear,0,2013-02-04 18:53:00
11:53 AM,80.1,30.9,17,30.00,10.0,Calm,Calm,-,N/A,,Clear,0,2013-02-04 19:53:00
12:53 PM,81.0,30.0,16,29.96,10.0,Variable,3.5,-,N/A,,Clear,0,2013-02-04 20:53:00
1:53 PM,81.0,28.9,15,29.93,10.0,SSW,4.6,-,N/A,,Clear,210,2013-02-04 21:53:00
2:53 PM,81.0,28.0,14,29.91,10.0,ESE,6.9,-,N/A,,Clear,110,2013-02-04 22:53:00
3:53 PM,81.0,28.0,14,29.91,10.0,Calm,Calm,-,N/A,,Clear,0,2013-02-04 23:53:00
4:53 PM,77.0,30.0,18,29.91,10.0,Calm,Calm,-,N/A,,Clear,0,2013-02-05 00:53:00
5:53 PM,73.9,30.9,21,29.93,10.0,Calm,Calm,-,N/A,,Clear,0,2013-02-05 01:53:00
6:53 PM,72.0,30.9,22,29.95,10.0,Variable,3.5,-,N/A,,Clear,0,2013-02-05 02:53:00
7:53 PM,69.1,30.9,24,29.97,10.0,NW,4.6,-,N/A,,Clear,310,2013-02-05 03:53:00
8:53 PM,66.0,39.9,38,29.99,10.0,NW,4.6,-,N/A,,Clear,320,2013-02-05 04:53:00
9:53 PM,63.0,39.9,43,29.99,10.0,NNW,8.1,-,N/A,,Clear,330,2013-02-05 05:53:00
10:53 PM,62.1,41.0,46,29.99,10.0,NNW,8.1,-,N/A,,Clear,340,2013-02-05 06:53:00
11:53 PM,59.0,42.1,53,29.99,10.0,Calm,Calm,-,N/A,,Clear,0,2013-02-05 07:53:00